Location: Rancho Del Sol Observatory
(38.7214°N, 120.6350°W)
Time: 14:08:55
(UTC-08:00)

Courier 1B Rocket - Pass Details

Date: 30 January 2020
Orbit: 920 x 1202 km, 28.2° (Epoch: 19 February)

Event Time Altitude Azimuth Distance (km) Brightness Sun altitude
Rises 14:09:32 0° 262° (W) 3,909 8.7 27.7°
Reaches altitude 10° 14:13:12 10° 245° (WSW) 2,894 8.5 27.3°
Maximum altitude 14:17:56 19° 203° (SSW) 2,214 9.1 26.8°
Drops below altitude 10° 14:22:28 10° 160° (SSE) 2,748 8.0 26.3°
Sets 14:25:51 0° 143° (SE) 3,647 8.2 26.0°
